Location: Observatoire de Paris
(48.8363°N, 2.3365°E)
Time: 16:18:32
(UTC+01:00)

Vanguard 3 - Pass Details

Date: 05 August 2021
Orbit: 510 x 3260 km, 33.4° (Epoch: 23 September)

Event Time Altitude Azimuth Distance (km) Brightness Sun altitude
Rises 20:37:32 0° 261° (W) 5,857 12.4 -3.0°
Reaches altitude 10° 20:41:10 10° 255° (WSW) 5,164 12.0 -3.5°
Maximum altitude 20:56:12 45° 190° (S) 3,867 10.4 -5.6°
Drops below altitude 10° 21:14:10 10° 127° (SE) 6,085 10.9 -8.0°
Enters shadow 21:14:45 - 126° (SE) 6,187 10.9 -8.1°
